Location: Newark
(50.4348°N, 30.5552°E)
Time: 01:11:11
(UTC+00:00)

Vanguard 3 - Pass Details

Date: 26 January 2020
Orbit: 508 x 3263 km, 33.3° (Epoch: 21 February)

Event Time Altitude Azimuth Distance (km) Brightness Sun altitude
Rises 14:42:26 0° 222° (SW) 6,877 13.6 -1.3°
Reaches altitude 10° 14:47:27 10° 215° (SW) 6,053 12.8 -2.0°
Maximum altitude 15:03:56 35° 159° (SSE) 4,342 10.9 -4.3°
Drops below altitude 10° 15:18:32 10° 102° (ESE) 5,402 10.8 -6.5°
Enters shadow 15:22:04 - 95° (E) 5,987 11.0 -7.0°
